Regional Weather Roundup
Issued by NWS Portland, ME

Current Version | Previous Version | Text Only | Print | Product List | Glossary On
Versions: 1 2 3 4 5 6 7 8 9 10 11 12 13 14 15 16 17 18 19 20 21 22 23 24 25 26 27 28 29 30 31 32 33 34 35 36 37 38 39 40 41 42 43 44 45 46 47 48 49 50
000
ASUS41 KGYX 290710
RWRGYX
WEATHER ROUNDUP FOR MAINE AND NEW HAMPSHIRE
NATIONAL WEATHER SERVICE GRAY ME
300 AM EDT FRI JUL 29 2016

MEZ002-005-006-010-012-015-018-020-021-024-026-027-029-290800-
MAINE

CITY           SKY/WX    TMP DP  RH WIND       PRES   REMARKS
PORTLAND       MOCLDY    70  65  84 N5        29.86F
SANFORD          N/A     67  66  97 CALM      29.87S
BAR HARBOR     CLOUDY    64  63  96 CALM      29.88S
WISCASSET      CLOUDY    68  65  90 CALM      29.87F
ROCKLAND       CLOUDY    64  63  96 CALM      29.87S FOG
FRYEBURG       CLOUDY    66  65  96 CALM      29.89S
LEWISTONAUBURN MOCLDY    66  65  96 CALM      29.88S
AUGUSTA        MOCLDY    66  65  96 NW3       29.88S
WATERVILLE     FOG       64  64 100 CALM      29.86S VSB 1/2
BANGOR         MOCLDY    70  66  87 CALM      29.88S
GREENVILLE       N/A     64  59  83 N6        29.90F
MILLINOCKET    CLOUDY    64  62  93 CALM      29.89S
HOULTON        FOG       65  65 100 CALM      29.87F VSB 1/4
PRESQUE ISLE   FOG       63  63 100 CALM      29.90S VSB 3/4
FRENCHVILLE    CLEAR     60  53  77 N8        29.89F
CARIBOU        FOG       64  63  96 N3        29.89S VSB 1/4
$$

NHZ002-005-008-009-011-012-014-290800-
NEW HAMPSHIRE

CITY           SKY/WX    TMP DP  RH WIND       PRES   REMARKS
PORTSMOUTH     CLOUDY    72  66  82 E2        29.85R
ROCHESTER      CLOUDY    70  65  84 NW6       29.86S
NASHUA         CLOUDY    76  66  71 NW5       29.86S
MANCHESTER     CLOUDY    76  65  68 NW5       29.85S
CONCORD        MOCLDY    73  66  78 NW3       29.87S
LACONIA        CLOUDY    70  67  90 CALM      29.89S
PLYMOUTH       FAIR      65  64  96 CALM      29.89S FOG
BERLIN         PTCLDY    60  57  89 CALM      29.93F
WHITEFIELD     MOCLDY    61  58  90 CALM      29.93S
JAFFREY        MOCLDY    70  65  84 CALM      29.91S
KEENE          LGT RAIN  71  66  84 CALM      29.88S
LEBANON        CLOUDY    67  64  90 CALM      29.90R
MT WASHINGTON  MOCLDY    52  48  87 W15         N/A
$$

VTZ005-007-008-290800-
VERMONT

CITY           SKY/WX    TMP DP  RH WIND       PRES   REMARKS
ST JOHNSBURY     N/A     66  62  87 MISG      29.90S
MONTPELIER     FOG       65  65 100 CALM      29.96F VSB 1
BURLINGTON     CLOUDY    69  65  86 CALM      29.90S
$$

MAZ007-012-024-CTZ003-RIZ002-NYZ038-NYZ072-290800-
SOUTHERN NEW ENGLAND AND NY

CITY           SKY/WX    TMP DP  RH WIND       PRES   REMARKS
BOSTON         CLOUDY    77  73  87 SW9       29.85S
WORCESTER      LGT RAIN  72  68  87 W8        29.90S
NANTUCKET      FOG       70  70 100 CALM      29.88S VSB 1/4
PROVIDENCE     MOCLDY    75  73  93 S5        29.86F
HARTFORD       LGT RAIN  75  69  81 W3        29.87S
ALBANY         TSTM      71  65  81 SE3       29.89S
NEW YORK CITY  LGT RAIN  77  73  87 E5        29.83F
$$

ANZ081-ANZ082-ANZ150-NHZ014-MEZ023>029-290800-
COASTAL MARINE OBSERVATIONS

STATION/POSITION TIME  TEMP    WIND        PRES    WAVE
                       AIR SEA DIR/SP/G            HT/PER
                 (UTC) (F)     (DEG/KT/KT) (MB)    (FT/S)
MOUNT DESERT ROC 0700   64     220/  4/  5 1011.6F
MATINICUS ROCK   0600   70     180/  8/ 10 1011.1F
ISLE OF SHOALS   0600   70      20/ 10/ 11 1010.6S
JEFFREYS LEDGE   0608      69                N/A     2/ 5
CASHES LEDGE BUO 0650   72 72  190/ 12/ 14 1011.1S   2/ 5
GEORGES BANK BUO 0650   71 68              1012.6F   2/ 7
$$

.............KEY..............
   WCI - WIND CHILL
   TC  - TEMPERATURE IN CELSIUS
   VSB - VISIBILITY IN MILES
   HX  - HEAT INDEX
   FAIR- INDICATES FEW OR NO CLOUDS BELOW 12,000 FT, WITH NO
         SIGNIFICANT WEATHER AND/OR OBSTRUCTIONS TO VISIBILITY.






USA.gov is the U.S. government's official web portal to all federal, state and local government web resources and services.